Weather History for Dallas/Ft Worth, TX

Change the Weather History Date:

Wednesday, August 7, 2013

  Actual Average Record
Temperature  
Mean Temperature 93 °F 86 °F  
Max Temperature 105 °F 97 °F 106 °F (1988)
Min Temperature 81 °F 76 °F 61 °F (1997)
Degree Days  
Heating Degree Days 0 0  
Month to date heating degree days 0 0  
Since 1 June heating degree days 0 0  
Since 1 July heating degree days 0 0  
Cooling Degree Days 28 21  
Month to date cooling degree days 186 147  
Year to date cooling degree days 1722 1691  
Since 1 June cooling degree days 1333 1269  
Growing Degree Days 43 (Base 50)    
Moisture  
Dew Point 65 °F    
Average Humidity 47    
Maximum Humidity 69    
Minimum Humidity 24    
Precipitation  
Precipitation 0.00 in 0.06 in 2.32 in (1997)
Month to date precipitation 0.00 0.38  
Year to date precipitation 17.35 22.58  
Sea Level Pressure  
Sea Level Pressure 29.80 in    
Wind  
Wind Speed 14 mph (South)    
Max Wind Speed 23 mph    
Max Gust Speed 27 mph    
Visibility 10 miles    
Events      
T = Trace of Precipitation, MM = Missing Value Source: NWS Daily Summary

Daily Weather History Graph

Daily Weather History Graph

Search for Another Location

Airport:

Trip Planner

Search our weather history database for the weather conditions in past years. The results will help you decide how hot, cold, wet, or windy it might be!

Date:

Astronomy

Aug. 07, 2013 Rise Set
Actual Time 6:46 AM CDT 8:21 PM CDT
Civil Twilight 6:19 AM CDT 8:47 PM CDT
Nautical Twilight 5:47 AM CDT 9:19 PM CDT
Astronomical Twilight 5:14 AM CDT 9:52 PM CDT
Moon 7:29 AM CDT (8/7) 8:36 PM CDT (8/7)
Length of Visible Light 14h 28m
Length of Day
13h 35m
New Moon, 1% of the Moon is Illuminated
Aug 7
New Moon
Aug 14
First Quarter
Aug 20
Full
Aug 28
Last Quarter
Sep 5
New

Hourly Weather History & Observations

Time (CDT) Temp. Heat Index Dew Point Humidity Pressure Visibility Wind Dir Wind Speed Gust Speed Precip Events Conditions
12:53 AM 90.0 °F 90.6 °F 63.0 °F 40% 29.81 in 10.0 mi South 17.3 mph - N/A   Clear
1:53 AM 88.0 °F 89.6 °F 64.9 °F 46% 29.81 in 10.0 mi South 17.3 mph - N/A   Clear
2:53 AM 86.0 °F 88.8 °F 66.9 °F 53% 29.81 in 10.0 mi South 17.3 mph - N/A   Clear
3:53 AM 84.9 °F 88.2 °F 68.0 °F 57% 29.81 in 10.0 mi South 16.1 mph 25.3 mph N/A   Clear
4:53 AM 82.9 °F 85.8 °F 68.0 °F 60% 29.79 in 10.0 mi South 18.4 mph 24.2 mph N/A   Clear
5:53 AM 82.0 °F 84.9 °F 68.0 °F 62% 29.81 in 10.0 mi South 12.7 mph - N/A   Clear
6:53 AM 81.0 °F 84.1 °F 69.1 °F 67% 29.81 in 10.0 mi South 13.8 mph - N/A   Partly Cloudy
7:53 AM 82.0 °F 85.5 °F 69.1 °F 65% 29.83 in 10.0 mi South 17.3 mph - N/A   Partly Cloudy
8:53 AM 84.0 °F 87.8 °F 69.1 °F 61% 29.84 in 10.0 mi South 16.1 mph - N/A   Partly Cloudy
9:53 AM 88.0 °F 91.4 °F 68.0 °F 51% 29.86 in 10.0 mi South 15.0 mph - N/A   Mostly Cloudy
10:53 AM 91.9 °F 95.9 °F 68.0 °F 45% 29.86 in 10.0 mi South 15.0 mph - N/A   Mostly Cloudy
11:53 AM 95.0 °F 97.9 °F 66.0 °F 38% 29.85 in 10.0 mi South 15.0 mph - N/A   Scattered Clouds
12:53 PM 99.0 °F 102.3 °F 64.9 °F 33% 29.83 in 10.0 mi South 15.0 mph 23.0 mph N/A   Partly Cloudy
1:53 PM 100.0 °F 103.0 °F 64.0 °F 31% 29.81 in 10.0 mi SW 10.4 mph - N/A   Partly Cloudy
2:53 PM 102.9 °F 105.5 °F 63.0 °F 27% 29.79 in 10.0 mi South 15.0 mph 20.7 mph N/A   Partly Cloudy
3:53 PM 104.0 °F 106.0 °F 62.1 °F 25% 29.77 in 10.0 mi South 11.5 mph - N/A   Clear
4:53 PM 104.0 °F 105.3 °F 61.0 °F 24% 29.75 in 10.0 mi SSE 10.4 mph 23.0 mph N/A   Partly Cloudy
5:53 PM 104.0 °F 106.0 °F 62.1 °F 25% 29.74 in 10.0 mi South 15.0 mph 21.9 mph N/A   Partly Cloudy
6:53 PM 102.0 °F 103.3 °F 61.0 °F 26% 29.73 in 10.0 mi SSE 15.0 mph - N/A   Clear
7:53 PM 100.0 °F 101.2 °F 61.0 °F 28% 29.73 in 10.0 mi SSE 12.7 mph - N/A   Clear
8:53 PM 97.0 °F 97.4 °F 61.0 °F 30% 29.75 in 10.0 mi South 11.5 mph - N/A   Partly Cloudy
9:53 PM 95.0 °F 95.2 °F 61.0 °F 32% 29.77 in 10.0 mi South 12.7 mph - N/A   Clear
10:53 PM 93.0 °F 93.0 °F 61.0 °F 34% 29.79 in 10.0 mi South 9.2 mph - N/A   Clear
11:53 PM 91.0 °F 91.5 °F 62.1 °F 38% 29.80 in 10.0 mi SSE 9.2 mph - N/A   Clear